This is the latest recevied weather packets stored in our database for station/object KG4YZY-1. If no packets are shown the sender has not sent any weather packets the latest 10 day(s).
| Time | Temp. | Humidity | Pressure | Rain* | Wind** | Luminosity | Snow |
|---|---|---|---|---|---|---|---|
| 1787844904 | 31.67° C | 71% | 1018.5 hPa | 0 mm | - | - | - |
| 1787844603 | 31.67° C | 72% | 1018.5 hPa | 0 mm | - | - | - |
| 1787844303 | 31.11° C | 72% | 1018.5 hPa | 0 mm | - | - | - |
| 1787844004 | 31.11° C | 72% | 1018.5 hPa | 0 mm | - | - | - |
| 1787843705 | 30.56° C | 73% | 1018.6 hPa | 0 mm | - | - | - |
| 1787843404 | 30° C | 73% | 1018.5 hPa | 0 mm | - | - | - |
| 1787843104 | 30° C | 74% | 1018.5 hPa | 0 mm | - | - | - |
| 1787842803 | 29.44° C | 75% | 1018.4 hPa | 0 mm | - | - | - |
| 1787842503 | 28.89° C | 75% | 1018.4 hPa | 0 mm | - | - | - |
| 1787842203 | 28.33° C | 75% | 1018.4 hPa | 0 mm | - | - | - |
| 1787841904 | 27.78° C | 77% | 1018.4 hPa | 0.25 mm | - | - | - |
| 1787841604 | 27.22° C | 78% | 1018.4 hPa | 0.25 mm | - | - | - |
| 1787841304 | 26.67° C | 82% | 1018.4 hPa | 0.25 mm | - | - | - |
| 1787841004 | 26.11° C | 84% | 1018.3 hPa | 0.25 mm | - | - | - |
| 1787840703 | 25.56° C | 85% | 1018.3 hPa | 0.25 mm | - | - | - |
| 1787840403 | 25° C | 85% | 1018.4 hPa | 0.25 mm | - | - | - |
| 1787840104 | 25° C | 87% | 1018.3 hPa | 0.25 mm | - | - | - |
| 1787839804 | 25° C | 87% | 1018.4 hPa | 0.25 mm | - | - | - |
| 1787839503 | 24.44° C | 86% | 1018.5 hPa | 0.25 mm | - | - | - |
| 1787839203 | 24.44° C | 84% | 1018.6 hPa | 0.25 mm | - | - | - |
| 1787838904 | 25° C | 83% | 1018.6 hPa | 0.25 mm | - | - | - |
| 1787838603 | 25.56° C | 80% | 1018.8 hPa | 0.25 mm | - | - | - |
| 1787838304 | 25.56° C | 79% | 1019.1 hPa | 0 mm | - | - | - |
| 1787838004 | 25.56° C | 80% | 1019.1 hPa | 0 mm | - | - | - |
| 1787837704 | 26.11° C | 80% | 1019.3 hPa | 0 mm | - | - | - |
* Rain latest hour (hover to see other rain measurements)
** Current wind speed in m/s (hover to see current wind gust speed)